Location: Cottbus
(51.7000°N, 14.3000°E)
Time: 13:27:57
(UTC+01:00)

ISS - Pass Details

Date: 01 February 2019
Orbit: 403 x 411 km, 51.6° (Epoch: 23 February)

Event Time Altitude Azimuth Distance (km) Brightness Sun altitude
Rises 17:17:02 0° 256° (WSW) 2,330 2.5 -4.5°
Reaches altitude 10° 17:19:07 10° 255° (WSW) 1,472 0.9 -4.8°
Maximum altitude 17:22:25 79° 170° (S) 423 -3.7 -5.3°
Drops below altitude 10° 17:25:44 10° 83° (E) 1,480 -1.6 -5.7°
Enters shadow 17:26:17 - 82° (E) 1,705 -1.3 -5.8°
